Weather History for CXTV - January, 2013

Change the Weather History Date:

Thursday, January 24, 2013

  Actual Average Record
Temperature  
Mean Temperature -32 °F -  
Max Temperature -24 °F - - ()
Min Temperature -41 °F - - ()
Degree Days  
Heating Degree Days 98    
Moisture  
Dew Point -37 °F    
Average Humidity 67    
Maximum Humidity 73    
Minimum Humidity 52    
Precipitation  
Precipitation 0.00 in - - ()
Sea Level Pressure  
Sea Level Pressure 30.20 in    
Wind  
Wind Speed 8 mph ()    
Max Wind Speed 16 mph    
Max Gust Speed -    
T = Trace of Precipitation, MM = Missing Value Source: Averaged Metar Reports

Daily Weather History Graph

Daily Weather History Graph

Search for Another Location

Airport or City:

Trip Planner

Search our weather history database for the weather conditions in past years. The results will help you decide how hot, cold, wet, or windy it might be!

Date:

Astronomy

Jan. 24, 2013 Rise Set
Actual Time 11:56 AM MST 4:16 PM MST
Civil Twilight 10:28 AM MST 5:44 PM MST
Nautical Twilight 9:11 AM MST 7:02 PM MST
Astronomical Twilight 8:03 AM MST 8:10 PM MST
Moon 1:52 PM MST (1/24) 10:34 AM MST (1/24)
Length of Visible Light 7h 16m
Length of Day
4h 20m
Waxing Gibbous, 95% of the Moon is Illuminated
Jan 24
Waxing Gibbous
Jan 26
Full
Feb 3
Last Quarter
Feb 10
New
Feb 17
First Quarter

Hourly Weather History & Observations

Time (MST) Temp. Windchill Dew Point Humidity Pressure Visibility Wind Dir Wind Speed Gust Speed Precip Events Conditions
12:00 AM -31.9 °F -53.0 °F -38.9 °F 69% 30.28 in - NNW 8.1 mph - N/A   Unknown
1:00 AM -30.8 °F -53.2 °F -37.7 °F 69% 30.27 in - NNW 9.2 mph - N/A   Unknown
2:00 AM -30.8 °F -55.7 °F -37.7 °F 69% 30.26 in - NNW 11.5 mph - N/A   Unknown
3:00 AM -31.2 °F -52.2 °F -38.0 °F 69% 30.26 in - NNW 8.1 mph - N/A   Unknown
4:00 AM -31.4 °F -52.4 °F -38.2 °F 69% 30.25 in - NNW 8.1 mph - N/A   Unknown
5:00 AM -31 °F - -38 °F 52% 30.24 in - NNW 11.5 mph - -  
5:00 AM -31.2 °F -56.2 °F -38.0 °F 69% 30.24 in - NNW 11.5 mph - N/A   Unknown
6:00 AM -31.2 °F -55.0 °F -38.0 °F 69% 30.23 in - NNW 10.4 mph - N/A   Unknown
7:00 AM -31.5 °F -50.9 °F -38.4 °F 69% 30.22 in - NW 6.9 mph - N/A   Unknown
8:00 AM -33.5 °F -49.0 °F -40.5 °F 68% 30.23 in - NW 4.6 mph - N/A   Unknown
9:00 AM -33.3 °F - -40.5 °F 68% 30.23 in - WNW 2.3 mph - N/A   Unknown
10:00 AM -34.2 °F -54.2 °F -41.4 °F 68% 30.21 in - WNW 6.9 mph - N/A   Unknown
11:00 AM -33 °F - -40 °F 53% 30.20 in - NW 9.2 mph - -  
11:00 AM -32.6 °F -55.4 °F -39.6 °F 69% 30.20 in - NW 9.2 mph - N/A   Unknown
12:00 PM -31.9 °F -53.0 °F -38.9 °F 69% 30.20 in - WNW 8.1 mph - N/A   Unknown
1:00 PM -32.3 °F -51.8 °F -39.3 °F 69% 30.20 in - West 6.9 mph - N/A   Unknown
2:00 PM -31.2 °F -50.5 °F -38.0 °F 69% 30.19 in - West 6.9 mph - N/A   Unknown
3:00 PM -29.4 °F -50.0 °F -36.0 °F 70% 30.19 in - NW 8.1 mph - N/A   Unknown
4:00 PM -28.7 °F -50.5 °F -35.3 °F 70% 30.18 in - WNW 9.2 mph - N/A   Unknown
5:00 PM -29 °F - -35 °F 56% 30.17 in - WNW 11.5 mph - -  
5:00 PM -28.7 °F -53.0 °F -35.3 °F 70% 30.17 in - WNW 11.5 mph - N/A   Unknown
7:00 PM -27.0 °F -53.1 °F -33.5 °F 71% 30.15 in - WNW 13.8 mph - N/A   Unknown
8:00 PM -26.5 °F -54.2 °F -32.8 °F 72% 30.13 in - WNW 16.1 mph - N/A   Unknown
9:00 PM -26.0 °F -51.7 °F -32.3 °F 72% 30.13 in - WNW 13.8 mph - N/A   Unknown
10:00 PM -25.4 °F -46.5 °F -31.5 °F 73% 30.13 in - West 9.2 mph - N/A   Unknown
11:00 PM -24 °F - -30 °F 56% 30.11 in - WNW 16.1 mph - -  
11:00 PM -24.3 °F -51.4 °F -30.5 °F 73% 30.11 in - WNW 16.1 mph - N/A   Unknown